AO-07 1 07530U 74089B 18144.56396587 -.00000043 00000-0 86683-5 0 9994 2 07530 101.6861 112.2402 0012365 22.9102 88.9827 12.53632580991630 UO-11 1 14781U 84021B 18144.58759398 .00000051 00000-0 12423-4 0 9990 2 14781 097.6512 181.8077 0009201 151.6126 208.5591 14.83005446819945 LO-19 1 20442U 90005G 18144.61045173 .00000000 00000-0 16215-4 0 9990 2 20442 098.6089 083.2487 0010988 215.5377 144.5076 14.32896044480451 HUBBLE 1 20580U 90037B 18144.57335038 .00000420 00000-0 14731-4 0 9992 2 20580 28.4694 271.2088 0002505 245.7186 207.3833 15.09041913341897 MET-2/21 1 22782U 93055A 18144.45814566 .00000047 00000-0 29393-4 0 9991 2 22782 082.5476 112.7637 0021908 190.0366 288.2433 13.83809249248626 AO-27 1 22825U 93061C 18144.50149472 -.00000007 00000-0 15106-4 0 9993 2 22825 098.8608 120.1900 0009394 059.7135 300.4975 14.30030598285914 IO-26 1 22826U 93061D 18144.52379836 -.00000003 00000-0 16631-4 0 9995 2 22826 098.8549 120.2534 0009809 050.0718 310.1324 14.30362033286374 FO-29 1 24278U 96046B 18144.56742774 -.00000027 00000-0 71237-5 0 9993 2 24278 98.5193 346.5791 0350527 172.0460 188.6444 13.53083535 75044 NOAA-15 1 25338U 98030A 18144.61330866 .00000073 00000-0 49673-4 0 9995 2 25338 098.7703 161.0287 0009398 298.9692 061.0545 14.25853491041408 GO-32 1 25397U 98043D 18144.41679742 -.00000018 00000-0 11185-4 0 9998 2 25397 098.6485 085.2504 0002442 088.3762 271.7696 14.23645818032126 ISS 1 25544U 98067A 18144.49818333 .00064398 00000-0 97207-3 0 9995 2 25544 051.6405 136.8017 0004137 116.3656 026.9076 15.54124865114830 NO-44 1 26931U 01043C 18144.86306271 -.00000042 00000-0 15585-4 0 9995 2 26931 67.0513 289.5912 0007535 277.8440 82.1806 14.30505770869216 SO-50 1 27607U 02058C 18144.48936574 -.00000003 00000-0 20305-4 0 9999 2 27607 064.5535 162.4717 0062697 333.5861 026.2049 14.75450195829338 CO-55 1 27844U 03031E 18144.52927798 .00000057 00000-0 45597-4 0 9995 2 27844 098.6869 153.5345 0011055 081.5302 278.7129 14.22113638772799 CO-57 1 27848U 03031J 18144.83390827 .00000044 00000-0 40052-4 0 9997 2 27848 98.6955 154.2249 0010959 90.0078 270.2355 14.21717583772748 RS-22 1 27939U 03042A 18144.85543601 .00000104 00000-0 27248-4 0 9991 2 27939 97.9869 284.5970 0012119 217.6422 263.5133 14.66686991783392 NOAA-18 1 28654U 05018A 18144.58686781 .00000018 00000-0 34947-4 0 9996 2 28654 099.1468 179.5575 0014242 189.4345 170.6561 14.12376305670359 CO-58 1 28895U 05043F 18144.41588146 .00000119 00000-0 31622-4 0 9998 2 28895 097.9060 296.8387 0017791 141.0069 219.2421 14.63546082670401 Falconsat-3 1 30776U 07006E 18144.13277855 .00002106 00000-0 63182-4 0 9995 2 30776 035.4365 059.8682 0002879 195.1144 164.9496 15.34444709620626 CO-65 1 32785U 08021C 18144.84990147 .00000215 00000-0 28902-4 0 9999 2 32785 97.5478 158.1417 0014601 113.2829 246.9927 14.88118295545709 AAUSAT2 1 32788U 08021F 18144.58510019 .00000136 00000-0 17695-4 0 9998 2 32788 097.5232 172.0726 0013462 070.7968 289.4708 14.94335150546554 DO-64 1 32789U 08021G 18144.59211290 .00000683 00000-0 50917-4 0 9990 2 32789 097.5135 199.9982 0013015 026.4025 333.7863 15.06025901548130 CO-66 1 32791U 08021J 18144.50671265 .00000258 00000-0 31762-4 0 9991 2 32791 097.5372 163.1202 0015119 096.9579 263.3360 14.90547325545900 RS-30 1 32953U 08025A 18144.53781719 .00000004 00000-0 -43953-4 0 9999 2 32953 082.5057 027.3891 0018074 262.2321 097.6707 12.43082958453830 PRISM 1 33493U 09002B 18144.49396526 .00000989 00000-0 93134-4 0 9995 2 33493 98.1341 45.6725 0016704 38.2683 321.9664 14.96211625506804 NOAA-19 1 33591U 09005A 18144.54835153 .00000068 00000-0 62016-4 0 9990 2 33591 099.1402 122.1080 0014640 036.7888 323.4285 14.12280229478835 TISAT-1 1 36799U 10035E 18144.42306369 .00000204 00000-0 26835-4 0 9998 2 36799 098.1029 280.0139 0010941 288.4438 071.5590 14.90790424426414 JUGNU 1 37839U 11058B 18144.40846361 .00000299 00000-0 17666-4 0 9995 2 37839 19.9599 181.4391 0018920 345.3650 133.2381 14.12619609342006 SRMSAT 1 37841U 11058D 18144.53429347 .00000303 00000-0 21264-4 0 9998 2 37841 019.9711 229.3930 0011671 230.5376 245.9649 14.10606701341444 AO-71 1 37854U 11061E 18144.61972982 .00001616 00000-0 91463-4 0 9999 2 37854 101.7045 197.5214 0164020 143.3872 217.8683 15.05393258357839 HRBE 1 37855U 11061F 18144.59735284 .00001190 00000-0 68443-4 0 9998 2 37855 101.7181 195.0680 0176972 152.0374 209.0485 15.04369496357631 ALMASAT-1 1 38078U 12006B 18144.82000138 .00036104 40210-5 32112-3 0 9993 2 38078 69.4291 281.3742 0243642 142.2297 336.6923 15.39403260337057 HORYU-2 1 38340U 12025D 18144.61147141 .00000185 00000-0 35211-4 0 9991 2 38340 098.3672 165.5219 0010210 288.1661 071.8435 14.75550747313224 RS-40 1 38735U 12041C 18144.60305043 .00000003 00000-0 -50668-4 0 9996 2 38735 082.4740 111.3244 0017295 009.8694 350.2722 12.42576234264075 BEESAT-3 1 39134U 13015E 18144.50091316 .00001002 00000-0 56961-4 0 9997 2 39134 064.8631 203.5265 0014018 215.4390 144.5807 15.19120370280920 BEESAT-2 1 39136U 13015G 18144.57734911 .00000813 00000-0 51950-4 0 9993 2 39136 064.8692 219.0520 0022777 239.0672 120.8214 15.16111505280624 ZACUBE-1 1 39417U 13066B 18144.59874304 .00000175 00000-0 28577-4 0 9994 2 39417 097.5888 174.4952 0057877 231.4737 128.1280 14.80930305243301 TRITON-1 1 39427U 13066M 18144.50677121 .00000217 00000-0 42776-4 0 9998 2 39427 097.6408 142.0018 0113450 335.9886 023.6053 14.67660967240910 GOMX-1 1 39430U 13066Q 18144.85040923 .00000197 00000-0 44347-4 0 9997 2 39430 97.6960 123.4069 0152749 44.6270 316.7109 14.59073461239757 LO-74 1 39440U 13066AA 18144.61140267 .00000196 00000-0 34534-4 0 9990 2 39440 097.6022 161.2470 0078888 272.1645 087.0533 14.75666377241246 AO-73 1 39444U 13066AE 18144.60707714 .00000260 00000-0 38569-4 0 9993 2 39444 097.5897 175.9986 0057115 226.8018 132.8417 14.81706527241578 SPROUT 1 39770U 14029E 18144.83751540 .00000495 00000-0 61706-4 0 9995 2 39770 97.8751 246.0797 0007494 289.6840 70.3557 14.86825710216896 DUCHIFAT-1 1 40021U 14033M 18144.55893189 .00000251 00000-0 31706-4 0 9993 2 40021 097.9169 063.2344 0011433 255.6916 104.3032 14.90295812213435 NANOSATCBR1 1 40024U 14033Q 18144.31962746 .00000345 00000-0 42084-4 0 9991 2 40024 97.9104 61.2853 0010781 259.0252 100.9752 14.89560131213322 EO-79 1 40025U 14033R 18144.55553697 .00000217 00000-0 29241-4 0 9997 2 40025 097.9064 060.0010 0010966 262.7039 097.2931 14.88706704212760 DTUSAT-2 1 40030U 14033W 18144.71600409 .00000221 00000-0 29991-4 0 9992 2 40030 97.9012 58.8870 0010461 256.5230 103.4821 14.88315262213249 EO-80 1 40032U 14033Y 18144.70571453 .00000227 00000-0 30665-4 0 9995 2 40032 97.9018 58.8798 0010406 257.1429 102.8625 14.88252515213237 ANTELSAT 1 40034U 14033AA 18144.64727099 .00000179 00000-0 34297-4 0 9990 2 40034 97.8144 22.1407 0057372 274.2024 85.2630 14.73917322211217 VELOX-1 1 40057U 14034E 18144.80796368 .00000292 00000-0 48639-4 0 9990 2 40057 98.2006 255.4550 0011900 49.9299 310.2954 14.77418253210191 DAURIA DX 1 1 40071U 14037C 18144.77488347 .00000107 00000-0 21200-4 0 9990 2 40071 98.3717 275.0970 0009410 42.9124 317.2823 14.81156987209530 UKUBE-1 1 40074U 14037F 18144.75159540 .00000270 00000-0 39766-4 0 9998 2 40074 98.3847 280.8302 0005456 42.3492 317.8146 14.83791786209828 HODOYOSHI-1 1 40299U 14070B 18144.80665207 .00000528 00000-0 25511-4 0 9991 2 40299 97.3764 226.9922 0012585 340.7507 133.1712 15.22879584196927 CHUBUSAT-1 1 40300U 14070C 18144.81464888 .00000529 00000-0 26460-4 0 9992 2 40300 97.3639 223.0081 0020016 349.5320 126.1419 15.21549483196728 QSAT-EOS 1 40301U 14070D 18144.49132037 .00001178 00000-0 50139-4 0 9996 2 40301 97.3586 223.8883 0025816 339.6725 77.4801 15.24694097196818 FIREBIRD FU3 1 40377U 15003B 18144.70782880 .00001540 00000-0 66989-4 0 9990 2 40377 99.0893 41.7982 0130568 309.1792 49.7896 15.17170872182762 FIREBIRD FU4 1 40378U 15003C 18144.69682793 .00001526 00000-0 66377-4 0 9996 2 40378 99.0895 41.8417 0130774 309.1019 49.8638 15.17180246182761 GRIFEX 1 40379U 15003D 18144.68687542 .00001123 00000-0 53439-4 0 9991 2 40379 99.0925 38.0886 0137895 321.4513 37.6928 15.14300045182542 NO-84 1 40654U 15025D 18144.36187827 .00007651 00000-0 12638-3 0 03077 2 40654 054.9916 143.9153 0161881 049.5863 311.9117 15.40074933052175 NO-83 1 40655U 15025E 18144.31456260 .00018872 00000-0 20149-3 0 03559 2 40655 054.9757 089.9621 0114510 081.1677 280.2343 15.56226832052566 DEORBITSAIL 1 40719U 15032E 18144.59981240 .00000341 00000-0 56312-4 0 9997 2 40719 097.9476 038.4976 0017585 120.6078 239.6869 14.76422580154699 NUDT-PHONESAT 1 40900U 15049B 18144.56017258 .00001800 00000-0 83555-4 0 9993 2 40900 097.4414 153.0864 0015244 109.5670 250.7213 15.21233174148322 XW-2A 1 40903U 15049E 18144.85702508 .00001732 00000-0 44782-4 0 9990 2 40903 97.3861 179.4790 0015925 112.1368 248.1571 15.40416641150212 XW-2C 1 40906U 15049H 18144.54373500 .00000550 00000-0 32756-4 0 9990 2 40906 97.4598 148.4695 0016690 109.7915 250.5118 15.15166366147918 XW-2D 1 40907U 15049J 18144.82870512 .00000590 00000-0 34737-4 0 9992 2 40907 97.4572 148.4487 0016091 106.9218 253.3780 15.15316027147962 LILACSAT-2 1 40908U 15049K 18144.54270240 .00000329 00000-0 21927-4 0 9991 2 40908 97.4683 147.5574 0017667 109.4495 250.8647 15.13496679147793 XW-2F 1 40910U 15049M 18144.53166855 .00000941 00000-0 51575-4 0 9991 2 40910 097.4574 149.4293 0016865 104.0390 256.2719 15.16494911147877 XW-2B 1 40911U 15049N 18144.84535319 .00000591 00000-0 34833-4 0 9990 2 40911 97.4607 148.9941 0015992 107.3793 252.9189 15.15260584147861 DCBB 1 40912U 15049P 18144.57170532 .00000935 00000-0 48214-4 0 9993 2 40912 097.4510 152.2352 0017312 093.5642 024.9754 15.18706505148087 TW-1C 1 40926U 15051B 18144.88945894 .00006595 00000-0 12466-3 0 9993 2 40926 97.1851 187.3438 0010227 13.5403 110.9457 15.48698987149709 TW-1A 1 40928U 15051D 18144.47131159 .00002064 00000-0 56120-4 0 9994 2 40928 097.1871 178.9290 0013581 052.8183 052.8794 15.38601372149138 IO-86 1 40931U 15052B 18144.01248590 .00000678 00000-0 53727-5 0 9997 2 40931 005.9994 322.5129 0013832 023.4194 336.6775 14.76576237143428 LQSat 1 40958U 15057A 18144.79820533 .00000016 00000-0 10188-4 0 9998 2 40958 97.9405 218.4523 0019367 54.3601 305.9397 14.73031687141408 AO-85 1 40967U 15058D 18144.34565252 .00000013 00000-0 19936-4 0 03399 2 40967 064.7776 263.6502 0204955 321.0115 037.6339 14.75710821050133 ATHENOXAT-1 1 41168U 15077C 18144.79347222 .00001620 00000-0 51890-4 0 9990 2 41168 14.9888 191.5067 0012102 75.3674 244.1595 15.12738343134822 ChubuSat-2 1 41338U 16012B 18144.29082815 .00000274 00000-0 14648-4 0 9992 2 41338 031.0029 105.4692 0013940 196.8836 163.1336 14.99975326124242 ChubuSat-3 1 41339U 16012C 18144.30756758 .00000278 00000-0 14896-4 0 9998 2 41339 31.0110 103.9924 0013502 204.0597 155.9408 15.00163578124234 Horyu-4 1 41340U 16012D 18144.24663931 .00000419 00000-0 25284-4 0 9993 2 41340 31.0051 99.2861 0014208 215.8736 144.0946 15.00975649124298 OUFTI-1 1 41458U 16025C 18144.76244088 .00001083 00000-0 60854-4 0 9992 2 41458 98.1381 206.3601 0169136 225.8866 132.8320 15.04588285113915 e-st@r-II 1 41459U 16025D 18144.43259884 .00001257 00000-0 70092-4 0 9995 2 41459 098.1384 205.8630 0170292 227.6471 131.0236 15.04326976113859 AAUSAT4 1 41460U 16025E 18144.83231195 .00001741 00000-0 94253-4 0 9999 2 41460 98.1317 206.7467 0161635 222.4181 136.4431 15.05726518113973 LO-87 1 41557U 16033B 18144.72751524 .00001073 00000-0 41729-4 0 9994 2 41557 97.4364 228.9923 0012577 237.7441 122.2580 15.28211196110572 NuSat2 1 41558U 16033C 18144.79691057 .00001085 00000-0 42273-4 0 9994 2 41558 97.4392 229.1566 0011853 234.6491 125.3642 15.28130417110576 Lapan A3 1 41603U 16040E 18144.76911924 .00000186 00000-0 11947-4 0 9993 2 41603 97.4123 206.7147 0012812 329.1063 147.9400 15.19559740106522 Swayam 1 41607U 16040J 18144.65383663 .00001237 00000-0 56869-4 0 9998 2 41607 97.4146 207.9675 0012711 327.2377 32.8069 15.22167279106524 Pratham 1 41783U 16059A 18144.40352842 .00000062 00000-0 21302-4 0 9990 2 41783 098.1192 206.3456 0033971 168.0996 192.1017 14.62922195088483 AlSat 1N 1 41789U 16059G 18144.85927067 .00000083 00000-0 24929-4 0 9993 2 41789 98.1193 207.9683 0028915 158.5251 201.7166 14.64153659 88608 ScatSat 1 41790U 16059H 18144.58882887 .00000006 00000-0 12686-4 0 9997 2 41790 098.2616 192.8052 0018698 160.1151 200.0777 14.50872473087761 TY-1 1 41844U 16066D 18144.82471387 .00001137 00000-0 50925-4 0 9995 2 41844 97.4059 152.1011 0017402 116.2708 9.7985 15.23189074 85323 Pegasus-1 1 41846U 16066F 18144.58917021 .00000161 00000-0 35905-4 0 9997 2 41846 098.7556 172.5567 0367435 317.1362 040.1709 14.37329276080518 CAS-2T 1 41847U 16066G 18144.59134290 .00000038 00000-0 17136-4 0 9997 2 41847 098.7518 172.9918 0365397 314.7236 042.4726 14.37891756080936 TO-89 1 41932U 98067KU 18144.32970114 .00029129 00000-0 19613-3 0 9990 2 41932 051.6339 103.6572 0005057 092.7618 267.3961 15.74881830077005 AOBA-V3LOX3 1 41935U 98067KX 18144.46558828 .00041200 00000-0 23653-3 0 9995 2 41935 051.6350 099.2575 0005003 096.3301 263.8270 15.78328173077176 EO-88 1 42017U 17008BX 18144.53118783 .00001331 00000-0 57259-4 0 9994 2 42017 097.4497 209.7279 0008202 101.6649 258.5510 15.24373468070467 HAVELSAT 1 42700U 98067LH 18144.41511317 .00025849 00000-0 21487-3 0 9997 2 42700 51.6346 116.2412 0003888 129.5722 230.5619 15.69967990 58282 SOMP2 1 42701U 98067LJ 18144.51610464 .00021828 00000-0 18873-3 0 9990 2 42701 51.6348 116.9172 0003941 129.7990 230.3354 15.69122158 58276 PHOENIX 1 42706U 98067LP 18144.47273731 .00018559 00000-0 16704-3 0 9990 2 42706 51.6347 117.3842 0002565 74.4734 285.6545 15.68262772 58183 X-CubeSat 1 42707U 98067LQ 18144.40324614 .00026407 00000-0 21526-3 0 9990 2 42707 51.6314 116.1043 0002938 72.7044 287.4274 15.70430393 58185 qbee 1 42708U 98067LR 18144.52859829 .00023025 00000-0 19455-3 0 9996 2 42708 51.6352 116.2407 0002836 74.4449 285.6861 15.69649833 58156 ZA-AeroSat 1 42713U 98067LU 18144.35432940 .00017671 00000-0 16779-3 0 9990 2 42713 51.6341 120.3329 0003604 69.8823 290.2560 15.66972805 57799 LINK 1 42714U 98067LV 18144.33796540 .00053510 00000-0 31825-3 0 9999 2 42714 51.6253 111.0811 0004646 69.5169 290.6330 15.77421709 58022 UPSat 1 42716U 98067LX 18144.32336894 .00038697 00000-0 26915-3 0 9995 2 42716 051.6323 113.3329 0003116 105.4433 254.6910 15.73986713058016 SpaceCube 1 42717U 98067LY 18144.36309135 .00023307 00000-0 19720-3 0 9996 2 42717 51.6329 117.3701 0002936 116.1566 243.9734 15.69608198 57204 Hoopoe 1 42718U 98067LZ 18144.36965687 .00030904 00000-0 23621-3 0 9993 2 42718 51.6338 115.1669 0003107 106.7552 253.3787 15.71881325 57239 Challenger 1 42721U 98067MA 18144.89951299 .00086286 00000-0 40072-3 0 9992 2 42721 51.6280 104.3077 0005697 104.9915 255.1718 15.82650429 57124 NJUST-1 1 42722U 98067MB 18144.40104727 .00016642 00000-0 16393-3 0 9994 2 42722 51.6350 121.4135 0005583 125.2107 234.9412 15.66096935 56854 UNSW-EC0 1 42723U 98067MC 18144.44372118 .00033177 00000-0 24685-3 0 9995 2 42723 51.6363 114.9392 0005168 112.6626 247.4920 15.72472132 56921 DUTHsat 1 42724U 98067MD 18144.89540826 .00073249 00000-0 36850-3 0 9999 2 42724 51.6329 105.8414 0004963 103.9719 256.1836 15.80996827 57000 LO-90 1 42725U 98067ME 18144.44041837 .00021116 00000-0 18882-3 0 9990 2 42725 51.6387 119.1217 0005118 122.9387 21.3917 15.68316340 56798 nSIGHT1 1 42726U 98067MF 18144.37616456 .00007309 00000-0 90716-4 0 9993 2 42726 51.6377 127.2998 0005435 133.7707 226.3737 15.61188271 56680 SNUSAT 1B 1 42727U 98067MG 18144.36150845 .00022511 00000-0 20161-3 0 9996 2 42727 51.6330 119.5961 0007084 94.1903 265.9904 15.68218781 56743 QBITO 1 42728U 98067MH 18144.39149072 .00025554 00000-0 21401-3 0 9998 2 42728 51.6370 117.6381 0003098 101.0001 259.1345 15.69796809 56614 Aalto-2 1 42729U 98067MJ 18144.37445227 .00025313 00000-0 21006-3 0 9992 2 42729 51.6341 117.4722 0003050 100.1861 259.9480 15.70025226 56621 SUSat 1 42730U 98067MK 18144.34526565 .00023043 00000-0 20230-3 0 9992 2 42730 51.6347 118.7707 0003050 104.0914 256.0422 15.68714233 56598 i-INSPIRE II 1 42731U 98067ML 18144.38198519 .00037717 00000-0 27367-3 0 9992 2 42731 51.6338 114.4589 0006921 83.0349 277.1436 15.72986367 56704 PolyITAN-2-SAU 1 42732U 98067MM 18144.46913871 .00026905 00000-0 22075-3 0 9996 2 42732 51.6338 116.5730 0006827 82.8359 277.3415 15.70241501 56687 ExAlta-1 1 42734U 98067MP 18144.50005552 .00035693 00000-0 25350-3 0 9994 2 42734 051.6312 113.7257 0007069 101.3160 258.8633 15.73514527056679 Aoxiang-1 1 42735U 98067MQ 18144.62603201 .00015621 00000-0 15243-3 0 9992 2 42735 51.6344 119.8946 0006108 124.1512 236.0064 15.66388180 58027 BeEagleSat 1 42736U 98067MR 18144.44823381 .00019201 00000-0 17665-3 0 9994 2 42736 51.6340 119.4474 0005828 121.7093 238.4472 15.67681584 56708 CAS-4B 1 42759U 17034B 18144.51035394 .00000190 00000-0 25328-4 0 9994 2 42759 43.0188 213.2467 0010294 314.8091 134.6843 15.09286586 51870 CAS-4A 1 42761U 17034D 18144.56844086 .00000083 00000-0 18671-4 0 9992 2 42761 43.0189 212.7143 0010596 315.9206 182.5259 15.09361895 51874 UCLSat 1 42765U 17036A 18144.40657495 .00001137 00000-0 53094-4 0 9996 2 42765 97.4026 204.6369 0012680 152.8056 207.3846 15.21791767 51099 NIUSat 1 42766U 17036B 18144.24267228 .00000937 00000-0 46100-4 0 9997 2 42766 097.4027 203.8037 0017098 143.3168 216.9241 15.20343488050895 LituanicaSAT 2 1 42768U 17036D 18144.85078973 .00001879 00000-0 86878-4 0 9995 2 42768 97.4041 204.6870 0016967 143.4764 216.7633 15.21275843 51012 Aalto 1 1 42775U 17036L 18144.60830819 .00000742 00000-0 36779-4 0 9994 2 42775 097.4020 204.3650 0015332 142.0366 218.1954 15.20709064050914 URSA MAIOR 1 42776U 17036M 18144.46446280 .00000811 00000-0 39860-4 0 9995 2 42776 97.4026 204.2698 0015160 142.6108 217.6185 15.20783186 50895 Max Valier Sat 1 42778U 17036P 18144.83024920 .00000949 00000-0 45495-4 0 9994 2 42778 97.4051 204.9293 0013749 145.5090 214.7040 15.21260180 50956 Pegasus 1 42784U 17036V 18144.44106440 .00001064 00000-0 50150-4 0 9999 2 42784 097.4030 204.6028 0013180 153.1104 207.0817 15.21603739050906 NUDATSat 1 42787U 17036Y 18144.56535730 .00001542 00000-0 70181-4 0 9990 2 42787 097.4037 204.9040 0012794 152.1648 208.0275 15.22153728050778 SUCHAI 1 1 42788U 17036Z 18144.40243174 .00001280 00000-0 59251-4 0 9996 2 42788 097.4029 204.6530 0012824 152.8921 207.2988 15.21862185050973 SKCUBE 1 42789U 17036AA 18144.13828804 .00001224 00000-0 56839-4 0 9993 2 42789 097.4028 204.3899 0012625 153.6810 206.5070 15.21828856050851 VZLUSAT 1 1 42790U 17036AB 18144.62073049 .00001469 00000-0 66933-4 0 9999 2 42790 097.4032 204.9665 0012355 152.0786 208.1116 15.22176343050936 VENTA 1 1 42791U 17036AC 18144.58090014 .00001052 00000-0 49203-4 0 9995 2 42791 097.4028 204.8635 0012270 152.6651 207.5233 15.21883787050918 Robusta 1B 1 42792U 17036AD 18144.43790983 .00001199 00000-0 55516-4 0 9998 2 42792 097.4027 204.7424 0012198 153.4087 206.7777 15.21968759050911 D-SAT 1 42794U 17036AF 18144.62000006 .00000279 00000-0 29926-4 0 9995 2 42794 097.5934 200.1637 0127061 001.4329 358.7229 14.90858320050214 BIRD-J 1 42820U 98067MU 18144.37771653 .00019400 00000-0 18495-3 0 9997 2 42820 051.6341 121.9839 0004318 065.7204 294.4242 15.66795519050142 BIRD-G 1 42821U 98067MV 18144.35832195 .00018602 00000-0 18099-3 0 9998 2 42821 51.6341 122.6060 0004267 67.4601 292.6846 15.66319047 50092 BIRD-M 1 42822U 98067MW 18144.40719890 .00019519 00000-0 18797-3 0 9994 2 42822 051.6344 122.1856 0004291 069.0793 291.0662 15.66539082050127 BIRD-B 1 42823U 98067MX 18144.40454004 .00019690 00000-0 18887-3 0 9998 2 42823 51.6350 122.1840 0006294 88.2485 271.9231 15.66620779 50105 BIRD-N 1 42824U 98067MY 18144.36200514 .00019181 00000-0 18551-3 0 9992 2 42824 51.6354 122.6647 0006160 88.4576 271.7125 15.66435446 50087 TechnoSat 1 42829U 17042E 18144.73815205 .00000242 00000-0 30041-4 0 9998 2 42829 97.5988 47.9723 0012729 279.0803 80.8975 14.90815849 46832 TOMSK-TPU 120 1 42910U 98067MZ 18144.49059082 .00013790 00000-0 15087-3 0 9995 2 42910 051.6340 125.7306 0006544 109.5327 250.6375 15.63600053043674 TANYUSHA 1 1 42911U 98067NA 18144.48838085 .00015445 00000-0 16252-3 0 9997 2 42911 51.6349 125.0013 0006258 103.3534 256.8159 15.64489100 43662 TANYUSHA 2 1 42912U 98067NB 18144.41863940 .00015176 00000-0 16310-3 0 9995 2 42912 051.6359 126.0068 0005437 112.2282 247.9290 15.63969264043662 SFERA 2 1 42913U 98067NC 18144.46954424 .00035472 00000-0 28223-3 0 9996 2 42913 051.6325 119.5604 0004470 102.4332 257.7166 15.70844342043750 TNS 0-2 1 42914U 98067ND 18144.53284310 .00013215 00000-0 14606-3 0 9996 2 42914 051.6352 126.0509 0005544 108.3836 251.7762 15.63387525043646 QIKCOM-1 1 42983U 98067NF 18144.57551658 .00002686 00000-0 44652-4 0 9993 2 42983 51.6389 134.6284 0004836 105.0035 255.1492 15.56096647 32544 AO-91 1 43017U 17073E 18144.51919268 .00000750 00000-0 64591-4 0 9993 2 43017 097.7068 076.6354 0259690 349.0354 010.5261 14.78053366027618 EcAMSat 1 43019U 98067NG 18144.40607042 .00004517 00000-0 68504-4 0 9992 2 43019 51.6388 134.9979 0005777 81.8774 278.2873 15.56835146114842 PICSAT 1 43132U 18004X 18144.12233229 .00001142 00000-0 52232-4 0 9994 2 43132 097.5356 206.7353 0010186 173.4786 186.6585 15.22579767020055 AO-92 1 43137U 18004AC 18144.37485481 .00000931 00000-0 43083-4 0 9994 2 43137 097.5352 207.0087 0009671 174.0400 186.0953 15.22660741020091 TianYi 2 1 43155U 18008A 18144.84713478 .00000241 00000-0 18477-4 0 9993 2 43155 97.5238 219.7179 0016855 220.8221 249.0183 15.10517327 18965 Zhou Enlai 1 43156U 18008B 18144.76264012 .00000980 00000-0 64145-4 0 9993 2 43156 97.5290 219.6041 0014090 217.5621 263.4572 15.09979269 18942 TianYi 6 1 43158U 18008D 18144.78481130 .00000203 00000-0 16518-4 0 9998 2 43158 97.5249 219.5094 0012906 213.6025 263.1197 15.09684783 18926 S-Net G 1 43186U 18014G 18144.75215541 .00000521 00000-0 51044-4 0 9990 2 43186 97.7266 53.5269 0009976 224.3791 135.6631 14.96441553 16813 S-Net H 1 43187U 18014H 18144.68522558 .00000512 00000-0 50217-4 0 9993 2 43187 97.7263 53.4583 0009975 224.5496 135.4925 14.96442341 16801 S-Net J 1 43188U 18014J 18144.75202801 .00000513 00000-0 50361-4 0 9999 2 43188 97.7267 53.5279 0009972 224.4502 135.5920 14.96443211 16817 S-Net K 1 43189U 18014K 18144.55151067 .00000497 00000-0 48889-4 0 9998 2 43189 097.7264 053.3256 0009955 225.1064 134.9350 14.96441790015336 FMN 1 1 43192U 18015A 18144.57821869 .00001770 00000-0 78701-4 0 9990 2 43192 097.3520 273.9600 0015812 222.8472 137.1532 15.22710949016928 Shaonian Xing 1 43199U 18015H 18144.57394309 .00001209 00000-0 53265-4 0 9996 2 43199 097.3301 273.7917 0016303 237.4624 122.5037 15.23608458016940 1KUNS-PF 1 43466U 98067NP 18144.42954027 .00007993 00000-0 12329-3 0 9992 2 43466 51.6407 137.0566 0001492 67.2942 95.2002 15.55136484 2004 UBAKUSAT 1 43467U 98067NQ 18144.42157696 .00006470 00000-0 10105-3 0 9999 2 43467 051.6410 137.0909 0003685 052.4432 068.1948 15.55171245002008 Irazu 1 43468U 98067NR 18144.40011079 .00009314 00000-0 14213-3 0 9996 2 43468 51.6412 137.1995 0001385 59.7597 300.3552 15.55207501101988 LONGJIANG 1 1 43471U 18045B 18140.97000001 -.00010094 00000-0 00000-0 0 9993 2 43471 027.5020 209.5210 9658153 171.2240 002.0960 00.09844104000018 LONGJIANG 2 1 43472U 18045C 18140.97000001 -.00010094 00000-0 00000-0 0 9994 2 43472 027.5020 209.5210 9658153 171.2240 002.0960 00.09844104000019 /EX